Time,TemperatureF,DewpointF,PressureIn,WindDirection,WindDirectionDegrees,WindSpeedMPH,WindSpeedGustMPH,Humidity,HourlyPrecipIn,Conditions,Clouds,dailyrainin,SoftwareType,DateUTC
2013-02-03 00:04:00,37.4,22.3,30.16,NE,45,2.7,-999.0,54,-99.99,,,0.00,Acu-Link.com,2013-02-03 07:04:00,
2013-02-03 00:19:00,36.3,21.7,30.16,North,0,1.6,-999.0,55,-99.99,,,0.00,Acu-Link.com,2013-02-03 07:19:00,
2013-02-03 00:34:00,35.2,21.6,30.16,West,270,0.0,-999.0,57,-99.99,,,0.00,Acu-Link.com,2013-02-03 07:34:00,
2013-02-03 00:49:00,33.6,21.6,30.16,NW,315,0.0,-999.0,61,-99.99,,,0.00,Acu-Link.com,2013-02-03 07:49:00,
2013-02-03 01:05:00,33.8,22.2,30.16,NNW,337,2.7,-999.0,62,-99.99,,,0.00,Acu-Link.com,2013-02-03 08:05:00,
2013-02-03 01:20:00,34.0,22.7,30.16,NNW,337,3.1,-999.0,63,-99.99,,,0.00,Acu-Link.com,2013-02-03 08:20:00,
2013-02-03 01:35:00,33.8,22.2,30.15,WNW,292,2.2,-999.0,62,-99.99,,,0.00,Acu-Link.com,2013-02-03 08:35:00,
2013-02-03 01:50:00,33.4,21.8,30.14,WNW,292,2.7,-999.0,62,-99.99,,,0.00,Acu-Link.com,2013-02-03 08:50:00,
2013-02-03 02:05:00,33.3,21.7,30.14,NNW,337,0.0,-999.0,62,-99.99,,,0.00,Acu-Link.com,2013-02-03 09:05:00,
2013-02-03 02:21:00,33.3,21.7,30.13,NNW,337,2.7,-999.0,62,-99.99,,,0.00,Acu-Link.com,2013-02-03 09:21:00,
2013-02-03 02:36:00,33.8,22.2,30.13,North,0,3.1,-999.0,62,-99.99,,,0.00,Acu-Link.com,2013-02-03 09:36:00,
2013-02-03 02:51:00,34.0,22.0,30.14,NW,315,4.7,-999.0,61,-99.99,,,0.00,Acu-Link.com,2013-02-03 09:51:00,
2013-02-03 03:06:00,33.8,21.8,30.13,NNW,337,2.2,-999.0,61,-99.99,,,0.00,Acu-Link.com,2013-02-03 10:06:00,
2013-02-03 03:21:00,33.1,21.1,30.13,NW,315,2.7,-999.0,61,-99.99,,,0.00,Acu-Link.com,2013-02-03 10:21:00,
2013-02-03 03:37:00,32.5,21.4,30.11,NW,315,2.7,-999.0,63,-99.99,,,0.00,Acu-Link.com,2013-02-03 10:37:00,
2013-02-03 03:52:00,32.4,21.2,30.12,West,270,1.1,-999.0,63,-99.99,,,0.00,Acu-Link.com,2013-02-03 10:52:00,
2013-02-03 04:07:00,32.0,21.2,30.11,East,90,3.1,-999.0,64,-99.99,,,0.00,Acu-Link.com,2013-02-03 11:07:00,
2013-02-03 04:22:00,31.5,21.4,30.10,NNE,22,3.1,-999.0,66,-99.99,,,0.00,Acu-Link.com,2013-02-03 11:22:00,
2013-02-03 04:37:00,31.5,21.4,30.09,NE,45,3.1,-999.0,66,-99.99,,,0.00,Acu-Link.com,2013-02-03 11:37:00,
2013-02-03 04:53:00,30.9,21.6,30.09,NNE,22,1.6,-999.0,68,-99.99,,,0.00,Acu-Link.com,2013-02-03 11:53:00,
2013-02-03 05:08:00,30.6,21.6,30.08,NNW,337,0.0,-999.0,69,-99.99,,,0.00,Acu-Link.com,2013-02-03 12:08:00,
2013-02-03 05:23:00,29.5,21.3,30.09,East,90,0.0,-999.0,71,-99.99,,,0.00,Acu-Link.com,2013-02-03 12:23:00,
2013-02-03 05:38:00,29.5,21.3,30.08,NNE,22,0.0,-999.0,71,-99.99,,,0.00,Acu-Link.com,2013-02-03 12:38:00,
2013-02-03 05:54:00,29.3,21.4,30.08,WNW,292,1.6,-999.0,72,-99.99,,,0.00,Acu-Link.com,2013-02-03 12:54:00,
2013-02-03 06:09:00,28.8,20.9,30.08,ENE,67,1.6,-999.0,72,-99.99,,,0.00,Acu-Link.com,2013-02-03 13:09:00,
2013-02-03 06:24:00,28.4,21.2,30.07,ENE,67,1.6,-999.0,74,-99.99,,,0.00,Acu-Link.com,2013-02-03 13:24:00,
2013-02-03 06:39:00,28.2,21.0,30.07,NE,45,0.0,-999.0,74,-99.99,,,0.00,Acu-Link.com,2013-02-03 13:39:00,
2013-02-03 06:54:00,27.7,20.8,30.07,East,90,0.0,-999.0,75,-99.99,,,0.00,Acu-Link.com,2013-02-03 13:54:00,
2013-02-03 07:10:00,27.7,20.8,30.07,ENE,67,2.2,-999.0,75,-99.99,,,0.00,Acu-Link.com,2013-02-03 14:10:00,
2013-02-03 07:25:00,29.3,25.6,30.06,NNE,22,0.0,-999.0,86,-99.99,,,0.00,Acu-Link.com,2013-02-03 14:25:00,
2013-02-03 07:40:00,28.8,21.2,30.07,WNW,292,2.2,-999.0,73,-99.99,,,0.00,Acu-Link.com,2013-02-03 14:40:00,
2013-02-03 07:55:00,30.7,21.8,30.07,WNW,292,2.2,-999.0,69,-99.99,,,0.00,Acu-Link.com,2013-02-03 14:55:00,
2013-02-03 08:10:00,33.1,22.2,30.06,ENE,67,1.6,-999.0,64,-99.99,,,0.00,Acu-Link.com,2013-02-03 15:10:00,
2013-02-03 08:26:00,35.2,22.8,30.07,SSW,202,2.2,-999.0,60,-99.99,,,0.00,Acu-Link.com,2013-02-03 15:26:00,
2013-02-03 08:41:00,36.7,23.7,30.07,WSW,247,0.0,-999.0,59,-99.99,,,0.00,Acu-Link.com,2013-02-03 15:41:00,
2013-02-03 08:56:00,37.0,22.0,30.06,ESE,112,1.6,-999.0,54,-99.99,,,0.00,Acu-Link.com,2013-02-03 15:56:00,
2013-02-03 09:11:00,38.1,22.5,30.06,East,90,2.7,-999.0,53,-99.99,,,0.00,Acu-Link.com,2013-02-03 16:11:00,
2013-02-03 09:26:00,39.0,22.0,30.05,NNW,337,2.7,-999.0,50,-99.99,,,0.00,Acu-Link.com,2013-02-03 16:26:00,
2013-02-03 09:42:00,40.3,22.7,30.05,NNW,337,3.1,-999.0,49,-99.99,,,0.00,Acu-Link.com,2013-02-03 16:42:00,
2013-02-03 09:57:00,40.6,22.5,30.04,NE,45,5.1,-999.0,48,-99.99,,,0.00,Acu-Link.com,2013-02-03 16:57:00,
2013-02-03 10:12:00,40.6,22.0,30.04,NE,45,6.7,-999.0,47,-99.99,,,0.00,Acu-Link.com,2013-02-03 17:12:00,
2013-02-03 10:27:00,41.5,22.3,30.04,North,0,4.7,-999.0,46,-99.99,,,0.00,Acu-Link.com,2013-02-03 17:27:00,
2013-02-03 10:43:00,42.4,22.6,30.04,NNW,337,4.7,-999.0,45,-99.99,,,0.00,Acu-Link.com,2013-02-03 17:43:00,
2013-02-03 10:58:00,43.5,22.5,30.03,East,90,4.3,-999.0,43,-99.99,,,0.00,Acu-Link.com,2013-02-03 17:58:00,
2013-02-03 11:13:00,44.8,22.5,30.02,NNE,22,3.1,-999.0,41,-99.99,,,0.00,Acu-Link.com,2013-02-03 18:13:00,
2013-02-03 11:28:00,45.1,23.4,30.01,NNW,337,2.7,-999.0,42,-99.99,,,0.00,Acu-Link.com,2013-02-03 18:28:00,
2013-02-03 11:43:00,45.3,21.8,30.00,ENE,67,2.2,-999.0,39,-99.99,,,0.00,Acu-Link.com,2013-02-03 18:43:00,
2013-02-03 11:59:00,46.4,22.2,30.00,ENE,67,3.1,-999.0,38,-99.99,,,0.00,Acu-Link.com,2013-02-03 18:59:00,
2013-02-03 12:14:00,46.4,22.2,29.98,ESE,112,0.0,-999.0,38,-99.99,,,0.00,Acu-Link.com,2013-02-03 19:14:00,
2013-02-03 12:29:00,47.5,22.5,29.97,SW,225,2.2,-999.0,37,-99.99,,,0.00,Acu-Link.com,2013-02-03 19:29:00,
2013-02-03 12:44:00,48.7,22.3,29.96,East,90,2.7,-999.0,35,-99.99,,,0.00,Acu-Link.com,2013-02-03 19:44:00,
2013-02-03 12:59:00,49.3,22.1,29.95,East,90,2.7,-999.0,34,-99.99,,,0.00,Acu-Link.com,2013-02-03 19:59:00,
2013-02-03 13:15:00,49.8,22.6,29.93,SE,135,1.1,-999.0,34,-99.99,,,0.00,Acu-Link.com,2013-02-03 20:15:00,
2013-02-03 13:30:00,50.9,22.8,29.93,East,90,1.6,-999.0,33,-99.99,,,0.00,Acu-Link.com,2013-02-03 20:30:00,
2013-02-03 13:45:00,50.9,22.8,29.92,ENE,67,0.0,-999.0,33,-99.99,,,0.00,Acu-Link.com,2013-02-03 20:45:00,
2013-02-03 14:00:00,51.8,22.9,29.92,ESE,112,0.0,-999.0,32,-99.99,,,0.00,Acu-Link.com,2013-02-03 21:00:00,
2013-02-03 14:16:00,51.4,21.1,29.90,North,0,1.6,-999.0,30,-99.99,,,0.00,Acu-Link.com,2013-02-03 21:16:00,
2013-02-03 14:31:00,51.8,20.6,29.90,SSW,202,1.6,-999.0,29,-99.99,,,0.00,Acu-Link.com,2013-02-03 21:31:00,
2013-02-03 14:46:00,53.4,21.1,29.88,North,0,0.0,-999.0,28,-99.99,,,0.00,Acu-Link.com,2013-02-03 21:46:00,
2013-02-03 15:01:00,53.4,22.0,29.88,South,180,0.0,-999.0,29,-99.99,,,0.00,Acu-Link.com,2013-02-03 22:01:00,
2013-02-03 15:16:00,53.6,20.4,29.87,ENE,67,3.8,-999.0,27,-99.99,,,0.00,Acu-Link.com,2013-02-03 22:16:00,
2013-02-03 15:32:00,54.1,21.8,29.87,ESE,112,1.1,-999.0,28,-99.99,,,0.00,Acu-Link.com,2013-02-03 22:32:00,
2013-02-03 15:47:00,52.9,21.5,29.87,SSW,202,2.7,-999.0,29,-99.99,,,0.00,Acu-Link.com,2013-02-03 22:47:00,
2013-02-03 16:02:00,52.9,21.5,29.85,NNW,337,0.0,-999.0,29,-99.99,,,0.00,Acu-Link.com,2013-02-03 23:02:00,
2013-02-03 16:17:00,55.0,21.7,29.85,SW,225,0.0,-999.0,27,-99.99,,,0.00,Acu-Link.com,2013-02-03 23:17:00,
2013-02-03 16:32:00,54.9,21.5,29.85,NNW,337,0.0,-999.0,27,-99.99,,,0.00,Acu-Link.com,2013-02-03 23:32:00,
2013-02-03 16:48:00,52.5,21.2,29.85,ENE,67,3.8,-999.0,29,-99.99,,,0.00,Acu-Link.com,2013-02-03 23:48:00,
2013-02-03 17:03:00,51.6,21.2,29.84,ENE,67,1.6,-999.0,30,-99.99,,,0.00,Acu-Link.com,2013-02-04 00:03:00,
2013-02-03 17:18:00,51.1,20.7,29.84,East,90,2.7,-999.0,30,-99.99,,,0.00,Acu-Link.com,2013-02-04 00:18:00,
2013-02-03 17:33:00,50.9,22.1,29.84,East,90,0.0,-999.0,32,-99.99,,,0.00,Acu-Link.com,2013-02-04 00:33:00,
2013-02-03 17:48:00,50.0,22.0,29.83,North,0,0.0,-999.0,33,-99.99,,,0.00,Acu-Link.com,2013-02-04 00:48:00,
2013-02-03 18:04:00,49.3,21.4,29.85,WNW,292,0.0,-999.0,33,-99.99,,,0.00,Acu-Link.com,2013-02-04 01:04:00,
2013-02-03 18:19:00,49.1,25.2,29.85,NNW,337,5.1,-999.0,39,-99.99,,,0.00,Acu-Link.com,2013-02-04 01:19:00,
2013-02-03 18:34:00,49.1,27.6,29.85,NNW,337,7.8,-999.0,43,-99.99,,,0.00,Acu-Link.com,2013-02-04 01:34:00,
2013-02-03 18:49:00,48.7,30.4,29.86,NW,315,9.8,-999.0,49,-99.99,,,0.00,Acu-Link.com,2013-02-04 01:49:00,
2013-02-03 19:05:00,48.2,31.4,29.87,NNE,22,5.1,-999.0,52,-99.99,,,0.00,Acu-Link.com,2013-02-04 02:05:00,
2013-02-03 19:20:00,47.7,31.4,29.87,NNW,337,5.1,-999.0,53,-99.99,,,0.00,Acu-Link.com,2013-02-04 02:20:00,
2013-02-03 19:35:00,47.3,31.5,29.86,NNW,337,7.4,-999.0,54,-99.99,,,0.00,Acu-Link.com,2013-02-04 02:35:00,
2013-02-03 19:50:00,46.9,31.2,29.86,WSW,247,6.3,-999.0,54,-99.99,,,0.00,Acu-Link.com,2013-02-04 02:50:00,
2013-02-03 20:05:00,46.8,30.5,29.87,NW,315,6.7,-999.0,53,-99.99,,,0.00,Acu-Link.com,2013-02-04 03:05:00,
2013-02-03 20:20:00,46.8,30.5,29.86,WNW,292,5.1,-999.0,53,-99.99,,,0.00,Acu-Link.com,2013-02-04 03:20:00,
2013-02-03 20:42:00,46.8,30.5,29.86,West,270,5.1,-999.0,53,-99.99,,,0.00,Acu-Link.com,2013-02-04 03:42:00,
2013-02-03 20:58:00,46.9,30.2,29.87,WSW,247,4.3,-999.0,52,-99.99,,,0.00,Acu-Link.com,2013-02-04 03:58:00,
2013-02-03 21:13:00,46.9,30.2,29.87,NW,315,6.3,-999.0,52,-99.99,,,0.00,Acu-Link.com,2013-02-04 04:13:00,
2013-02-03 21:28:00,46.9,29.8,29.88,WNW,292,5.1,-999.0,51,-99.99,,,0.00,Acu-Link.com,2013-02-04 04:28:00,
2013-02-03 21:43:00,46.8,29.6,29.87,West,270,7.4,-999.0,51,-99.99,,,0.00,Acu-Link.com,2013-02-04 04:43:00,
2013-02-03 21:58:00,46.6,28.9,29.87,NW,315,5.1,-999.0,50,-99.99,,,0.00,Acu-Link.com,2013-02-04 04:58:00,
2013-02-03 22:13:00,46.4,28.8,29.88,WSW,247,4.7,-999.0,50,-99.99,,,0.00,Acu-Link.com,2013-02-04 05:13:00,
2013-02-03 22:29:00,46.4,28.8,29.87,West,270,5.1,-999.0,50,-99.99,,,0.00,Acu-Link.com,2013-02-04 05:29:00,
2013-02-03 22:44:00,46.6,28.5,29.87,West,270,5.1,-999.0,49,-99.99,,,0.00,Acu-Link.com,2013-02-04 05:44:00,
2013-02-03 22:59:00,46.4,28.3,29.87,SW,225,5.1,-999.0,49,-99.99,,,0.00,Acu-Link.com,2013-02-04 05:59:00,
2013-02-03 23:14:00,46.4,28.8,29.87,NW,315,5.8,-999.0,50,-99.99,,,0.00,Acu-Link.com,2013-02-04 06:14:00,
2013-02-03 23:29:00,46.0,28.5,29.86,NW,315,5.1,-999.0,50,-99.99,,,0.00,Acu-Link.com,2013-02-04 06:29:00,
2013-02-03 23:45:00,45.7,28.1,29.87,NW,315,3.8,-999.0,50,-99.99,,,0.00,Acu-Link.com,2013-02-04 06:45:00,